Location: Newark
(21.1200°N, 73.4000°E)
Time: 21:31:04
(UTC+00:00)

Vanguard 2 - Visible Passes

Search period start: 19 January 2020 00:00
Search period end: 29 January 2020 00:00
Orbit: 553 x 2938 km, 32.9° (Epoch: 18 January)

Date Brightness Start Highest point End Pass type
(mag) Time Alt. Az. Time Alt. Az. Time Alt. Az.
19 Jan 7.6 14:30:54 10° WNW 14:34:45 51° SSW 14:35:37 44° S visible
20 Jan 8.7 14:49:11 10° W 14:52:42 29° SSW 14:53:18 28° SSW visible
21 Jan 9.5 15:08:03 10° WSW 15:10:42 16° SSW 15:11:07 16° SSW visible
22 Jan 7.2 13:16:22 10° WNW 13:20:26 68° SSW 13:24:30 10° SE visible
23 Jan 8.4 13:34:34 10° W 13:38:17 35° SSW 13:42:04 10° SE visible
24 Jan 12.3 00:45:37 10° SSE 00:52:25 13° SE 00:58:52 10° ESE visible
24 Jan 9.4 13:53:14 10° W 13:56:08 19° SSW 13:59:06 10° SSE visible
25 Jan 12.1 00:59:50 10° S 01:10:59 20° SE 01:21:07 10° ESE visible
26 Jan 12.0 01:15:38 10° SSW 01:29:21 27° SE 01:41:25 10° E visible
27 Jan 12.1 23:44:03 10° S 23:53:04 16° SE 00:02:05 10° ESE visible
